Location: Clifton Park
(41.4873°N, 81.8024°W)
Time: 19:37:23
(UTC+00:00)

Cosmos 1953 - Pass Details

Date: 21 January 2020
Orbit: 539 x 558 km, 82.5° (Epoch: 28 February)

Event Time Altitude Azimuth Distance (km) Brightness Sun altitude
Rises 11:25:19 0° 214° (SSW) 2,720 5.7 -15.4°
Reaches altitude 10° 11:27:44 10° 226° (SW) 1,834 4.7 -15.0°
Maximum altitude 11:31:11 27° 285° (WNW) 1,104 3.2 -14.4°
Drops below altitude 10° 11:34:39 10° 344° (NNW) 1,853 4.7 -13.7°
Sets 11:37:07 0° 356° (N) 2,754 5.7 -13.3°
